ANZ401 NZAA-NZWN

Flight info

Callsign ANZ401
Flight time N/A
Altitude 32000
Route IGBAT Y506 TPAPA
Aircraft A320/M-SDE3FGHIRWY/LB1

Departure

Time N/A
Airport Auckland International Airport (NZAA)

Arrival

Time 2026-05-03 20:59
Airport Wellington International Airport (NZWN)
Time Latitude Longitude Altitude Speed Heading
2026-05-03 20:22 -37.50448 174.64860 20725 ft 403 kts 185°
2026-05-03 20:22 -37.53244 174.64449 21260 ft 406 kts 185°
2026-05-03 20:22 -37.56027 174.64039 21773 ft 409 kts 186°
2026-05-03 20:23 -37.58834 174.63366 22268 ft 413 kts 193°
2026-05-03 20:23 -37.61635 174.62493 22759 ft 416 kts 192°
2026-05-03 20:23 -37.64455 174.61611 23243 ft 418 kts 193°
2026-05-03 20:23 -37.67288 174.60722 23721 ft 421 kts 193°
2026-05-03 20:24 -37.70149 174.59823 24176 ft 424 kts 193°
2026-05-03 20:24 -37.73021 174.58925 24565 ft 427 kts 192°
2026-05-03 20:24 -37.75912 174.58027 24957 ft 429 kts 192°
2026-05-03 20:24 -37.78816 174.57122 25351 ft 431 kts 193°
2026-05-03 20:25 -37.81731 174.56213 25725 ft 433 kts 193°
2026-05-03 20:25 -37.84659 174.55298 26105 ft 434 kts 193°
2026-05-03 20:25 -37.87597 174.54376 26482 ft 436 kts 193°
2026-05-03 20:25 -37.90545 174.53451 26845 ft 438 kts 193°
2026-05-03 20:26 -37.93505 174.52527 27208 ft 439 kts 193°
2026-05-03 20:26 -37.96481 174.51599 27561 ft 441 kts 192°
2026-05-03 20:26 -37.99507 174.50955 27913 ft 442 kts 185°
2026-05-03 20:26 -38.02574 174.50530 28270 ft 444 kts 185°
2026-05-03 20:27 -38.05615 174.50115 28608 ft 446 kts 185°
2026-05-03 20:27 -38.08709 174.49693 28958 ft 447 kts 185°
2026-05-03 20:27 -38.11814 174.49265 29304 ft 449 kts 185°
2026-05-03 20:27 -38.14932 174.48831 29639 ft 451 kts 185°
2026-05-03 20:28 -38.18055 174.48396 30003 ft 452 kts 185°
2026-05-03 20:28 -38.21180 174.47959 30488 ft 451 kts 185°
2026-05-03 20:28 -38.24293 174.47526 30933 ft 449 kts 185°
2026-05-03 20:28 -38.26353 174.47241 31214 ft 448 kts 185°
2026-05-03 20:29 -38.29447 174.46813 31631 ft 447 kts 185°
2026-05-03 20:29 -38.32540 174.46379 32042 ft 446 kts 185°
2026-05-03 20:29 -38.35623 174.45949 32435 ft 445 kts 185°
2026-05-03 20:29 -38.38707 174.45520 32570 ft 445 kts 185°
2026-05-03 20:30 -38.41790 174.45087 32590 ft 446 kts 185°
2026-05-03 20:30 -38.47960 174.44213 32595 ft 446 kts 185°
2026-05-03 20:31 -38.54126 174.43347 32594 ft 446 kts 185°
2026-05-03 20:31 -38.60254 174.42497 32602 ft 446 kts 185°
2026-05-03 20:32 -38.66419 174.41631 32597 ft 446 kts 185°
2026-05-03 20:32 -38.72589 174.40751 32606 ft 446 kts 185°
2026-05-03 20:33 -38.78754 174.39885 32609 ft 446 kts 185°
2026-05-03 20:33 -38.84923 174.39014 32612 ft 446 kts 185°
2026-05-03 20:34 -38.91083 174.38132 32616 ft 445 kts 185°
2026-05-03 20:34 -38.97247 174.37249 32614 ft 445 kts 185°
2026-05-03 20:35 -39.03412 174.36375 32611 ft 445 kts 185°
2026-05-03 20:35 -39.09585 174.36187 32616 ft 444 kts 176°
2026-05-03 20:36 -39.15755 174.36551 32616 ft 444 kts 176°
2026-05-03 20:36 -39.21925 174.36900 32617 ft 444 kts 176°
2026-05-03 20:37 -39.28102 174.37255 32615 ft 444 kts 176°
2026-05-03 20:37 -39.34237 174.37606 32619 ft 444 kts 176°
2026-05-03 20:38 -39.40405 174.37965 32619 ft 444 kts 176°
2026-05-03 20:38 -39.46572 174.38323 32612 ft 444 kts 176°
2026-05-03 20:39 -39.52737 174.38685 32612 ft 444 kts 176°
2026-05-03 20:39 -39.58910 174.39040 32610 ft 443 kts 176°
2026-05-03 20:40 -39.65072 174.39394 32580 ft 444 kts 176°
2026-05-03 20:40 -39.71209 174.39753 31952 ft 444 kts 176°
2026-05-03 20:40 -39.74313 174.39936 31232 ft 446 kts 177°
2026-05-03 20:41 -39.77401 174.40119 30692 ft 442 kts 177°
2026-05-03 20:41 -39.80463 174.40296 30072 ft 439 kts 177°
2026-05-03 20:41 -39.83453 174.40470 29527 ft 434 kts 177°
2026-05-03 20:41 -39.86462 174.40647 28972 ft 430 kts 176°
2026-05-03 20:42 -39.89444 174.40821 28428 ft 426 kts 177°
2026-05-03 20:42 -39.92400 174.40997 27884 ft 423 kts 177°
2026-05-03 20:42 -39.95329 174.41172 27343 ft 420 kts 177°
2026-05-03 20:42 -39.98243 174.41346 26819 ft 417 kts 176°
2026-05-03 20:43 -40.01130 174.41515 26295 ft 414 kts 177°
2026-05-03 20:43 -40.04006 174.41684 25787 ft 412 kts 177°
2026-05-03 20:43 -40.06865 174.41853 25283 ft 410 kts 176°
2026-05-03 20:43 -40.09709 174.42022 24799 ft 408 kts 176°
2026-05-03 20:44 -40.12540 174.42188 24322 ft 406 kts 177°
2026-05-03 20:44 -40.15356 174.42350 23805 ft 405 kts 177°
2026-05-03 20:44 -40.18131 174.42511 23342 ft 402 kts 177°
2026-05-03 20:44 -40.20909 174.42674 22881 ft 399 kts 177°
2026-05-03 20:45 -40.23676 174.42837 22413 ft 396 kts 177°
2026-05-03 20:45 -40.26420 174.42997 21951 ft 394 kts 177°
2026-05-03 20:45 -40.29152 174.43160 21474 ft 392 kts 177°
2026-05-03 20:45 -40.31857 174.43323 21003 ft 389 kts 176°
2026-05-03 20:46 -40.34562 174.43487 20518 ft 388 kts 177°
2026-05-03 20:46 -40.37256 174.43652 20026 ft 386 kts 177°
2026-05-03 20:46 -40.39935 174.43813 19523 ft 384 kts 177°
2026-05-03 20:46 -40.42602 174.43969 19021 ft 383 kts 177°
2026-05-03 20:47 -40.45260 174.44125 18460 ft 381 kts 177°
2026-05-03 20:47 -40.47873 174.44278 17958 ft 378 kts 177°
2026-05-03 20:47 -40.50490 174.44432 17452 ft 374 kts 178°
2026-05-03 20:47 -40.53083 174.44588 16947 ft 371 kts 178°
2026-05-03 20:48 -40.55646 174.44742 16448 ft 368 kts 178°
2026-05-03 20:48 -40.58195 174.44895 15947 ft 365 kts 178°
2026-05-03 20:48 -40.60725 174.45049 15441 ft 362 kts 178°
2026-05-03 20:48 -40.63228 174.45201 14951 ft 359 kts 178°
2026-05-03 20:49 -40.65723 174.45353 14454 ft 357 kts 179°
2026-05-03 20:49 -40.68193 174.45500 13924 ft 354 kts 178°
2026-05-03 20:49 -40.70645 174.45656 13440 ft 350 kts 177°
2026-05-03 20:49 -40.73058 174.45941 12966 ft 346 kts 175°
2026-05-03 20:50 -40.75432 174.46343 12496 ft 342 kts 173°
2026-05-03 20:50 -40.77753 174.46789 11859 ft 343 kts 173°
2026-05-03 20:50 -40.80135 174.47256 11187 ft 346 kts 173°
2026-05-03 20:50 -40.82491 174.47711 10772 ft 339 kts 174°
2026-05-03 20:51 -40.84796 174.48143 10561 ft 328 kts 174°
2026-05-03 20:51 -40.87005 174.48548 10437 ft 314 kts 174°
2026-05-03 20:51 -40.89131 174.48928 10306 ft 302 kts 174°
2026-05-03 20:51 -40.91179 174.49287 10172 ft 291 kts 174°
2026-05-03 20:52 -40.93130 174.49630 9907 ft 276 kts 174°
2026-05-03 20:52 -40.95011 174.49961 9423 ft 271 kts 174°
2026-05-03 20:52 -40.96873 174.50289 8941 ft 269 kts 175°
2026-05-03 20:52 -40.98708 174.50694 8440 ft 267 kts 167°
2026-05-03 20:53 -41.00404 174.51684 7939 ft 267 kts 150°
2026-05-03 20:53 -41.01814 174.53286 7502 ft 269 kts 134°
2026-05-03 20:53 -41.03018 174.55188 7096 ft 268 kts 133°
2026-05-03 20:53 -41.04202 174.57058 6678 ft 268 kts 133°
2026-05-03 20:54 -41.05414 174.58964 6259 ft 272 kts 133°
2026-05-03 20:54 -41.07858 174.62815 5526 ft 274 kts 132°
2026-05-03 20:54 -41.09074 174.64737 5268 ft 271 kts 133°
2026-05-03 20:55 -41.10288 174.66657 4915 ft 272 kts 133°
2026-05-03 20:55 -41.11501 174.68581 4597 ft 271 kts 131°
2026-05-03 20:55 -41.12722 174.70493 4219 ft 273 kts 131°
2026-05-03 20:55 -41.13963 174.72387 3879 ft 271 kts 132°
2026-05-03 20:56 -41.15237 174.74311 3349 ft 281 kts 130°
2026-05-03 20:56 -41.16474 174.76292 3161 ft 275 kts 124°
2026-05-03 20:56 -41.17521 174.78366 3028 ft 266 kts 121°
2026-05-03 20:56 -41.18737 174.80160 2888 ft 261 kts 140°
2026-05-03 20:57 -41.20387 174.81247 2339 ft 269 kts 167°
2026-05-03 20:57 -41.22201 174.81391 2067 ft 251 kts 185°
2026-05-03 20:57 -41.23868 174.81250 1668 ft 232 kts 184°
2026-05-03 20:57 -41.25391 174.81149 1319 ft 206 kts 182°
2026-05-03 20:58 -41.26726 174.81063 1089 ft 181 kts 180°
2026-05-03 20:58 -41.27927 174.80984 834 ft 168 kts 178°
2026-05-03 20:58 -41.29063 174.80913 633 ft 160 kts 179°
2026-05-03 20:58 -41.30149 174.80857 467 ft 156 kts 181°
2026-05-03 20:59 -41.31255 174.80781 243 ft 161 kts 183°
2026-05-03 20:59 -41.32352 174.80711 39 ft 152 kts 180°
2026-05-03 20:59 -41.33168 174.80664 26 ft 57 kts 183°
2026-05-03 20:59 -41.33303 174.80694 26 ft 7 kts 76°
2026-05-03 21:00 -41.33234 174.80762 26 ft 20 kts 30°
2026-05-03 21:00 -41.33197 174.80780 26 ft 16 kts
2026-05-03 21:00 -41.32993 174.80800 26 ft 19 kts
2026-05-03 21:00 -41.32873 174.80809 26 ft 9 kts
2026-05-03 21:01 -41.32837 174.80865 26 ft 11 kts 107°
2026-05-03 21:01 -41.32904 174.80892 26 ft 9 kts 142°
2026-05-03 21:01 -41.32916 174.80985 26 ft 12 kts 92°
2026-05-03 21:01 -41.32876 174.81047 26 ft 4 kts 31°
2026-05-03 21:02 -41.32873 174.81049 26 ft 0 kts 29°